Regional Weather Roundup
Issued by NWS

Home | Current Version | Previous Version | Graphics & Text | Print | Product List | Glossary On
Versions: 1 2 3 4 5 6 7 8 9 10 11 12 13 14 15 16 17 18 19 20 21 22 23 24 25 26 27 28 29 30 31 32 33 34 35 36 37 38 39 40 41 42 43 44 45 46 47 48 49 50
000
ASUS43 KDTX 041701
RWRMI
MICHIGAN HOURLY REGIONAL WEATHER ROUNDUP
NATIONAL WEATHER SERVICE DETROIT/PONTIAC MI
100 PM EDT MON MAY 04 2015

NOTE: "FAIR" INDICATES FEW OR NO CLOUDS BELOW 12,000 FEET WITH NO
SIGNIFICANT WEATHER AND/OR OBSTRUCTION TO VISIBILITY.

MIZ047>049-052>055-059>063-066>070-074>076-081>083-041800-
SOUTHEAST LOWER MICHIGAN

CITY           SKY/WX    TMP DP  RH WIND       PRES   REMARKS
ADRIAN         CLOUDY    66  57  72 W12       30.10R
ALMA           CLOUDY    69  58  66 W10G21    30.05R
ANN ARBOR      CLOUDY    69  58  67 W12       30.07S
BAD AXE        CLOUDY    64  55  72 W9        30.03R
CARO           CLOUDY    66  56  69 W10G17    30.03R
DETROIT CITY   CLOUDY    66  56  70 SW17G28   30.06S
DETROIT        CLOUDY    69  57  65 SW15G26   30.08R
FLINT          PTSUNNY   74  56  53 W21G31    30.04R
GROSSE ILE     CLOUDY    64  57  77 SW8       30.07F
HILLSDALE      CLOUDY    70  57  64 MISG      30.10R
HOWELL         PTSUNNY   73  55  52 SW15G24   30.05S

CITY           SKY/WX    TMP DP  RH WIND       PRES   REMARKS
JACKSON        PTSUNNY   71  56  58 W12G20    30.07S
LAMBERTVILLE   CLOUDY    63  57  82 SW6       30.11R
LANSING        PTSUNNY   71  55  56 W24G31    30.07R
LAPEER         PTSUNNY   72  53  51 W16G25    30.03S
MASON          PTSUNNY   72  53  51 W14G22    30.06S
MONROE         CLOUDY    64  57  77 SW8       30.08R
MT. CLEMENS    PTSUNNY   70  57  64 SW16G26   30.03R
PONTIAC        PTSUNNY   73  55  53 SW10      30.04R
PORT HOPE        N/A     54  50  86 CALM      30.00R
PORT HURON     CLOUDY    68  57  68 SW10G17   30.04S
TRI CITIES     PTSUNNY   71  56  58 NW12      30.03R
MIDLAND        CLOUDY    69  55  60 NW9       30.03R
TROY           PTSUNNY   70  57  63 SW15      30.07S
SAGINAW HB     PTSUNNY   70  55  60 W14G21    30.03R
$$
MIZ043>046-050>051-056>058-064>065-071>073-077>080-041800-
SOUTHWEST LOWER MICHIGAN

CITY           SKY/WX    TMP DP  RH WIND       PRES   REMARKS
BATTLE CREEK   CLOUDY    72  56  57 W16       30.09R
BENTON HARBOR  CLOUDY    63  56  78 W12       30.11R
BIG RAPIDS     PTSUNNY   67  56  67 N9G21     30.06R
COLDWATER      CLOUDY    70  58  66 W10       30.09S
FREMONT        FAIR      69  55  60 N9        30.06R
HOLLAND        CLOUDY    60  56  86 W7        30.11R
GRAND RAPIDS   PTSUNNY   68  56  65 W16       30.08R
IONIA          PTSUNNY   70  56  61 W13       30.06R
KALAMAZOO      CLOUDY    71  56  58 W13       30.09R
LUDINGTON      MOSUNNY   66  55  67 N10       30.08R
MARSHALL       CLOUDY    71  56  59 MISG      30.08R
MOUNT PLEASANT CLOUDY    68  56  65 NW7       30.04R
MUSKEGON       CLOUDY    57  51  80 W10       30.09R HAZE
SOUTH HAVEN    CLOUDY    64  55  71 W6        30.11R
$$
MIZ016>042-041800-
NORTHERN LOWER MICHIGAN

CITY           SKY/WX    TMP DP  RH WIND       PRES   REMARKS
ALPENA         PTSUNNY   66  53  63 NW10G17   30.00R
BEAVER ISLAND  MOSUNNY   57  44  62 NW12      30.07R
BELLAIRE       PTSUNNY   63  45  51 NW5       30.08R
CADILLAC       PTSUNNY   68  47  47 N9G20     30.06R
CHARLEVOIX     CLOUDY    55  45  68 W10       30.11R
FRANKFORT      SUNNY     63  37  38 N10       30.09R
GAYLORD        MOSUNNY   65  38  36 NW14      30.05R
GRAYLING       PTSUNNY   67  43  41 N12G17    30.05R
HARBOR SPRINGS CLOUDY    45  41  86 SW7       30.06R
MANISTEE       MOSUNNY   61  48  63 NW10      30.09R
OSCODA         LGT RAIN  63  58  86 NW9       30.01R
PELLSTON       CLOUDY    64  45  49 NW13      30.05R
ROGERS CITY    PTSUNNY   68  47  47 NW15G21   30.02R
TRAVERSE CITY  MOSUNNY   64  42  44 N9        30.08R
$$
MIZ007>008-015-041800-
EASTERN UPPER MICHIGAN

CITY           SKY/WX    TMP DP  RH WIND       PRES   REMARKS
KINROSS        SUNNY     61  46  59 NW22      30.01S
MACKINAC ISLAN MOSUNNY   53  45  72 SW7       30.03R
NEWBERRY       SUNNY     60  43  54 NW17G26   30.06R
S. S. MARIE    SUNNY     57  45  64 W13       30.02R
MUNISING         N/A     48  37  65 NW20G28   30.14R
$$
MIZ004>006-011>014-085-041800-
CENTRAL UPPER MICHIGAN

CITY           SKY/WX    TMP DP  RH WIND       PRES   REMARKS
MANISTIQUE     MOSUNNY   61  41  48 NW20G25   30.08R
ESCANABA       SUNNY     63  39  42 N10G18    30.10R
MENOMINEE      SUNNY     63  41  45 E16       30.10R
SAWYER-GWINN   SUNNY     57  39  51 NE20      30.13R
$$
MIZ001>003-009>011-084-041800-
WESTERN UPPER MICHIGAN

CITY           SKY/WX    TMP DP  RH WIND       PRES   REMARKS
IRON MOUNTAIN  SUNNY     64  34  32 NW14G22   30.11R
HOUGHTON       SUNNY     56  35  45 N15G26    30.15R
COPPER HARBOR    N/A     51  39  63 N20       30.14R
IRONWOOD       SUNNY     57  34  41 NW10G17   30.16R
$$

ABBREVIATIONS USED IN REMARKS
   TC - TEMPERATURE IN CELSIUS
  WCI - WIND CHILL INDEX
   HX - HEAT INDEX
  VSB - VISIBILITY



USA.gov is the U.S. government's official web portal to all federal, state and local government web resources and services.